Simultaneous Nadir Overpasses (SNOs) Predictions

Prediction of SNOs between METOP-B and TERRA Satellite Orbit:

Table of predicted SNOs for the next 14.0 days since TLE Epoch: 12/21/2012
Index Date (METOP-B) Time (METOP-B) Lat,Lon (METOP-B) SZA (METOP-B ) Date (TERRA) Time (TERRA) Lat,Lon (TERRA) SZA (TERRA ) Distance(km) Time Diff (sec)
1 12/21/2012 19:14:00 -81.27, 118.20 72.68 12/21/2012 19:14:35 -81.27, 118.08 72.68 1.97 35
2 12/21/2012 20:04:39 81.28, -74.06 107.37 12/21/2012 20:04:01 81.28, -74.14 107.34 1.30 38
3 12/24/2012 14:48:28 -81.27,-175.71 72.79 12/24/2012 14:48:56 -81.27,-175.54 72.76 2.91 28
4 12/24/2012 15:39:07 81.27, -7.96 107.26 12/24/2012 15:38:22 81.28, -7.77 107.26 3.24 45
5 12/27/2012 10:22:57 -81.27,-109.28 72.92 12/27/2012 10:23:21 -81.26,-109.27 72.92 0.67 24
6 12
